Location: Unspecified
(0.0000°N, 0.0000°E)
Time: 16:24:41
(UTC+00:00)

deb Explorer IX - All Passes

Search period start: 20 September 2017 00:00
Search period end: 30 September 2017 00:00
Orbit: 538 x 1126 km, 38.8° (Epoch: 14 September)

Date Brightness Start Highest point End Pass type
(mag) Time Alt. Az. Time Alt. Az. Time Alt. Az.
20 Sep - 04:29:11 10° SSW 04:32:56 34° SE 04:37:01 10° ENE visible
20 Sep - 06:16:27 10° W 06:19:55 22° NW 06:23:46 10° NNE daylight
20 Sep - 15:24:20 10° NNW 15:30:14 25° NE 15:35:56 10° E daylight
20 Sep - 17:10:40 10° NW 17:18:02 72° SW 17:24:42 10° SE daylight
20 Sep - 19:02:21 10° WSW 19:05:29 13° SW 19:08:29 10° SSW visible
21 Sep - 04:09:20 10° SSW 04:13:06 37° SE 04:17:09 10° ENE visible
21 Sep - 05:56:53 10° W 06:00:05 20° NW 06:03:34 10° N daylight
21 Sep - 15:04:08 10° NNW 15:10:12 27° NE 15:16:06 10° E daylight
21 Sep - 16:50:35 10° NW 16:57:58 69° SW 17:04:45 10° SE daylight
21 Sep - 18:42:30 10° WSW 18:45:30 13° SW 18:48:24 10° SSW visible
22 Sep - 03:49:29 10° SSW 03:53:17 40° SE 03:57:18 10° ENE visible
22 Sep - 05:37:20 10° W 05:40:15 18° NW 05:43:24 10° N daylight
22 Sep - 14:43:58 10° NNW 14:50:09 28° NE 14:56:14 10° E daylight
22 Sep - 16:30:30 10° WNW 16:37:53 66° SW 16:44:47 10° SE daylight
22 Sep - 18:22:40 10° WSW 18:25:31 13° SW 18:28:17 10° SSW visible
23 Sep - 03:29:36 10° SSW 03:33:28 43° SE 03:37:27 10° ENE visible
23 Sep - 05:17:49 10° WNW 05:20:25 16° NW 05:23:11 10° N visible
23 Sep - 14:23:49 10° NNW 14:30:05 30° NE 14:36:21 10° E daylight
23 Sep - 16:10:27 10° WNW 16:17:48 62° SW 16:24:48 10° SE daylight
23 Sep - 18:02:53 10° WSW 18:05:32 12° SW 18:08:06 10° SSW daylight
24 Sep - 03:09:44 10° SW 03:13:38 48° SE 03:17:37 10° ENE visible
24 Sep - 04:58:20 10° WNW 05:00:35 14° NW 05:02:57 10° N visible
24 Sep - 14:03:41 10° NNW 14:10:01 31° NE 14:16:25 10° E daylight
24 Sep - 15:50:24 10° WNW 15:57:43 59° SW 16:04:47 10° SE daylight
24 Sep - 17:43:08 10° WSW 17:45:32 12° SW 17:47:52 10° SSW daylight
25 Sep - 02:49:50 10° SW 02:53:49 53° SE 02:57:48 10° ENE visible
25 Sep - 04:38:55 10° WNW 04:40:45 13° NW 04:42:40 10° N visible
25 Sep - 13:43:35 10° NNW 13:49:56 33° NE 13:56:28 10° ESE daylight
25 Sep - 15:30:23 10° WNW 15:37:38 56° SW 15:44:44 10° SE daylight
25 Sep - 17:23:28 10° SW 17:25:32 11° SW 17:27:33 10° SSW daylight
26 Sep - 02:29:57 10° SW 02:33:59 59° SE 02:37:58 10° ENE night (unlit)
26 Sep - 04:19:36 10° WNW 04:20:55 11° NW 04:22:16 10° NNW visible
26 Sep - 13:23:31 10° NNW 13:29:52 35° NE 13:36:29 10° ESE daylight
26 Sep - 15:10:22 10° WNW 15:17:32 53° SW 15:24:40 10° SE daylight
26 Sep - 17:03:56 10° SW 17:05:31 11° SW 17:07:06 10° SSW daylight
27 Sep - 02:10:02 10° SW 02:14:10 66° SE 02:18:10 10° ENE night (unlit)
27 Sep - 04:00:46 10° NW 04:01:06 10° NW 04:01:25 10° NNW visible
27 Sep - 13:03:27 10° NNW 13:09:48 36° NE 13:16:29 10° ESE daylight
27 Sep - 14:50:23 10° WNW 14:57:26 51° SW 15:04:34 10° SSE daylight
27 Sep - 16:44:43 10° SW 16:45:31 10° SW 16:46:20 10° SSW daylight
28 Sep - 01:50:06 10° SW 01:54:21 73° SE 01:58:21 10° NE night (unlit)
28 Sep - 12:43:24 10° NNW 12:49:43 38° NE 12:56:29 10° ESE daylight
28 Sep - 14:30:25 10° WNW 14:37:20 48° SW 14:44:27 10° SSE daylight
29 Sep - 01:30:10 10° SW 01:34:31 81° SE 01:38:33 10° NE night (unlit)
29 Sep - 12:23:23 10° NNW 12:29:38 40° NE 12:36:26 10° ESE daylight
29 Sep - 14:10:28 10° WNW 14:17:15 45° SW 14:24:19 10° SSE daylight
